Weather History for Glenwood, MN

Change the Weather History Date:

Monday, August 12, 2013

  Actual Average Record
Temperature  
Mean Temperature 66 °F -  
Max Temperature 77 °F 81 °F 95 °F (1969)
Min Temperature 55 °F 57 °F 45 °F (1952)
Cooling Degree Days 1    
Growing Degree Days 16 (Base 50)    
Moisture  
Dew Point 54 °F    
Average Humidity 68    
Maximum Humidity 94    
Minimum Humidity 39    
Precipitation  
Precipitation 0.00 in - - ()
Sea Level Pressure  
Sea Level Pressure 30.09 in    
Wind  
Wind Speed 7 mph (NW)    
Max Wind Speed 15 mph    
Max Gust Speed 21 mph    
Visibility 10 miles    
Events      
Averages and records for this station are not official NWS values.
T = Trace of Precipitation, MM = Missing Value Source: NWS Daily Summary

Daily Weather History Graph

Daily Weather History Graph

Search for Another Location

Airport:

Trip Planner

Search our weather history database for the weather conditions in past years. The results will help you decide how hot, cold, wet, or windy it might be!

Date:

Astronomy

Aug. 12, 2013 Rise Set
Actual Time 6:18 AM CDT 8:33 PM CDT
Civil Twilight 5:45 AM CDT 9:06 PM CDT
Nautical Twilight 5:04 AM CDT 9:46 PM CDT
Astronomical Twilight 4:19 AM CDT 10:31 PM CDT
Moon 12:31 PM CDT (8/12) 11:04 PM CDT (8/12)
Length of Visible Light 15h 20m
Length of Day
14h 15m
Waxing Crescent, 31% of the Moon is Illuminated
Aug 12
Waxing Crescent
Aug 14
First Quarter
Aug 20
Full
Aug 28
Last Quarter
Sep 5
New

Hourly Weather History & Observations

Time (CDT) Temp. Dew Point Humidity Pressure Visibility Wind Dir Wind Speed Gust Speed Precip Events Conditions
12:13 AM 60.8 °F 55.4 °F 82% 30.08 in 10.0 mi NNW 5.8 mph - N/A   Clear
12:33 AM 60.8 °F 55.4 °F 82% 30.08 in 10.0 mi NNW 4.6 mph - N/A   Clear
12:53 AM 60.8 °F 55.4 °F 82% 30.08 in 10.0 mi NW 4.6 mph - N/A   Clear
1:13 AM 59.0 °F 55.4 °F 88% 30.09 in 10.0 mi NW 5.8 mph - N/A   Clear
1:33 AM 59.0 °F 55.4 °F 88% 30.09 in 10.0 mi NW 5.8 mph - N/A   Clear
1:53 AM 59.0 °F 55.4 °F 88% 30.09 in 10.0 mi NW 4.6 mph - N/A   Clear
2:13 AM 59.0 °F 55.4 °F 88% 30.08 in 10.0 mi NNW 5.8 mph - N/A   Clear
2:33 AM 57.2 °F 55.4 °F 94% 30.08 in 10.0 mi NNW 5.8 mph - N/A   Clear
2:53 AM 57.2 °F 53.6 °F 88% 30.08 in 10.0 mi NNW 5.8 mph - N/A   Clear
3:13 AM 57.2 °F 53.6 °F 88% 30.08 in 10.0 mi NNW 4.6 mph - N/A   Clear
3:33 AM 55.4 °F 53.6 °F 94% 30.08 in 10.0 mi NNW 4.6 mph - N/A   Clear
3:53 AM 55.4 °F 53.6 °F 94% 30.08 in 10.0 mi NNW 5.8 mph - N/A   Clear
4:13 AM 57.2 °F 53.6 °F 88% 30.08 in 10.0 mi NNW 4.6 mph - N/A   Clear
4:33 AM 55.4 °F 53.6 °F 94% 30.07 in 10.0 mi NNW 4.6 mph - N/A   Clear
4:53 AM 55.4 °F 53.6 °F 94% 30.07 in 10.0 mi NNW 5.8 mph - N/A   Clear
5:13 AM 55.4 °F 53.6 °F 94% 30.07 in 10.0 mi NNW 6.9 mph - N/A   Clear
5:33 AM 55.4 °F 53.6 °F 94% 30.08 in 10.0 mi NNW 5.8 mph - N/A   Clear
5:53 AM 55.4 °F 53.6 °F 94% 30.08 in 10.0 mi NNW 5.8 mph - N/A   Clear
6:14 AM 55.4 °F 53.6 °F 94% 30.09 in 10.0 mi NW 4.6 mph - N/A   Clear
6:33 AM 55.4 °F 53.6 °F 94% 30.09 in 10.0 mi NW 5.8 mph - N/A   Clear
6:53 AM 55.4 °F 53.6 °F 94% 30.08 in 10.0 mi NNW 6.9 mph - N/A   Clear
7:13 AM 57.2 °F 53.6 °F 88% 30.09 in 10.0 mi NNW 4.6 mph - N/A   Clear
7:33 AM 57.2 °F 55.4 °F 94% 30.09 in 10.0 mi NNW 4.6 mph - N/A   Clear
7:53 AM 59.0 °F 55.4 °F 88% 30.09 in 10.0 mi Calm Calm - N/A   Clear
8:13 AM 60.8 °F 57.2 °F 88% 30.10 in 10.0 mi NNW 4.6 mph - N/A   Clear
8:33 AM 62.6 °F 57.2 °F 82% 30.10 in 10.0 mi Calm Calm - N/A   Clear
8:53 AM 64.4 °F 57.2 °F 77% 30.10 in 10.0 mi NNW 6.9 mph - N/A   Clear
9:13 AM 66.2 °F 57.2 °F 73% 30.10 in 10.0 mi NW 5.8 mph - N/A   Clear
9:33 AM 68.0 °F 57.2 °F 68% 30.10 in 10.0 mi NW 5.8 mph - N/A   Clear
9:53 AM 69.8 °F 55.4 °F 60% 30.10 in 10.0 mi NW 6.9 mph - N/A   Clear
10:13 AM 69.8 °F 55.4 °F 60% 30.10 in 10.0 mi WNW 8.1 mph - N/A   Clear
10:33 AM 71.6 °F 55.4 °F 57% 30.10 in 10.0 mi NW 9.2 mph - N/A   Clear
10:53 AM 71.6 °F 53.6 °F 53% 30.11 in 10.0 mi NW 8.1 mph - N/A   Clear
11:13 AM 71.6 °F 51.8 °F 50% 30.11 in 10.0 mi NW 10.4 mph - N/A   Clear
11:33 AM 73.4 °F 53.6 °F 50% 30.11 in 10.0 mi NW 11.5 mph - N/A   Clear
11:53 AM 73.4 °F 53.6 °F 50% 30.11 in 10.0 mi WNW 10.4 mph 17.3 mph N/A   Clear
12:13 PM 73.4 °F 55.4 °F 53% 30.11 in 10.0 mi WNW 10.4 mph 16.1 mph N/A   Scattered Clouds
12:33 PM 73.4 °F 53.6 °F 50% 30.11 in 10.0 mi WNW 11.5 mph 17.3 mph N/A   Scattered Clouds
12:52 PM 73.4 °F 53.6 °F 50% 30.11 in 10.0 mi WNW 9.2 mph - N/A   Clear
1:13 PM 75.2 °F 53.6 °F 47% 30.11 in 10.0 mi NW 10.4 mph 19.6 mph N/A   Clear
1:33 PM 75.2 °F 53.6 °F 47% 30.11 in 10.0 mi NW 12.7 mph - N/A   Clear
1:53 PM 75.2 °F 51.8 °F 44% 30.11 in 10.0 mi NW 10.4 mph 16.1 mph N/A   Clear
2:13 PM 75.2 °F 51.8 °F 44% 30.10 in 10.0 mi NNW 11.5 mph 16.1 mph N/A   Clear
2:33 PM 75.2 °F 51.8 °F 44% 30.10 in 10.0 mi WNW 15.0 mph 18.4 mph N/A   Clear
2:53 PM 77.0 °F 53.6 °F 44% 30.10 in 10.0 mi NNW 12.7 mph - N/A   Clear
3:14 PM 77.0 °F 51.8 °F 41% 30.09 in 10.0 mi NNW 10.4 mph 17.3 mph N/A   Clear
3:33 PM 77.0 °F 50.0 °F 39% 30.09 in 10.0 mi NW 10.4 mph 20.7 mph N/A   Clear
3:53 PM 77.0 °F 51.8 °F 41% 30.08 in 10.0 mi NW 9.2 mph - N/A   Clear
4:13 PM 77.0 °F 51.8 °F 41% 30.08 in 10.0 mi WNW 13.8 mph - N/A   Clear
4:33 PM 77.0 °F 53.6 °F 44% 30.08 in 10.0 mi WNW 15.0 mph 18.4 mph N/A   Clear
4:54 PM 77.0 °F 53.6 °F 44% 30.08 in 10.0 mi NW 12.7 mph 19.6 mph N/A   Clear
5:13 PM 77.0 °F 55.4 °F 47% 30.07 in 10.0 mi NW 11.5 mph 18.4 mph N/A   Clear
5:33 PM 77.0 °F 53.6 °F 44% 30.07 in 10.0 mi NW 11.5 mph 20.7 mph N/A   Clear
5:53 PM 77.0 °F 53.6 °F 44% 30.07 in 10.0 mi NW 9.2 mph - N/A   Scattered Clouds
6:13 PM 75.2 °F 55.4 °F 50% 30.07 in 10.0 mi NW 13.8 mph - N/A   Clear
6:34 PM 73.4 °F 55.4 °F 53% 30.07 in 7.0 mi NW 6.9 mph - N/A   Clear
6:53 PM 73.4 °F 55.4 °F 53% 30.07 in 10.0 mi NW 5.8 mph - N/A   Clear
7:13 PM 73.4 °F 57.2 °F 57% 30.07 in 7.0 mi NW 5.8 mph - N/A   Clear
7:33 PM 71.6 °F 57.2 °F 60% 30.07 in 10.0 mi NW 4.6 mph - N/A   Clear
7:53 PM 69.8 °F 57.2 °F 64% 30.07 in 10.0 mi NW 4.6 mph - N/A   Clear
8:14 PM 68.0 °F 57.2 °F 68% 30.07 in 10.0 mi NNW 6.9 mph - N/A   Clear
8:33 PM 66.2 °F 55.4 °F 68% 30.07 in 10.0 mi NNW 4.6 mph - N/A   Clear
8:53 PM 66.2 °F 55.4 °F 68% 30.08 in 10.0 mi North 5.8 mph - N/A   Clear
9:14 PM 64.4 °F 55.4 °F 73% 30.09 in 10.0 mi North 4.6 mph - N/A   Clear
9:33 PM 64.4 °F 55.4 °F 73% 30.10 in 10.0 mi North 5.8 mph - N/A   Clear
9:54 PM 64.4 °F 53.6 °F 68% 30.10 in 10.0 mi North 5.8 mph - N/A   Clear
10:13 PM 62.6 °F 53.6 °F 72% 30.11 in 10.0 mi North 6.9 mph - N/A   Clear
10:33 PM 62.6 °F 51.8 °F 68% 30.11 in 10.0 mi North 8.1 mph - N/A   Clear
10:54 PM 62.6 °F 51.8 °F 68% - 10.0 mi North 8.1 mph - N/A   Clear
11:13 PM 62.6 °F 51.8 °F 68% 30.13 in 10.0 mi NNE 8.1 mph - N/A   Clear
11:32 PM 60.8 °F 51.8 °F 72% 30.13 in 10.0 mi NNE 8.1 mph - N/A   Clear
11:53 PM 60.8 °F 51.8 °F 72% 30.13 in 10.0 mi NNE 8.1 mph - N/A   Clear